Regional Weather Roundup
Issued by NWS Sioux Falls, SD

Home | Current Version | Previous Version | Text Only | Print | Product List | Glossary Off
Versions: 1 2 3 4 5 6 7 8 9 10 11 12 13 14 15 16 17 18 19 20 21 22 23 24 25 26 27 28 29 30 31 32 33 34 35 36 37 38 39 40 41 42 43 44 45 46 47 48 49 50

000
ASUS43 KFSD 182110
RWRFSD

WEATHER ROUNDUP FOR SE SOUTH DAKOTA/SW MINNESOTA/NW IOWA
NATIONAL WEATHER SERVICE SIOUX FALLS SD
400 PM CDT THU SEP 18 2014

NOTE: "FAIR" INDICATES FEW OR NO CLOUDS BELOW 12,000 FEET WITH NO
SIGNIFICANT WEATHER AND OR OBSTRUCTIONS TO VISIBILITY.


SDZ038>040-050-052>070-182200-
SOUTHEAST SOUTH DAKOTA

CITY           SKY/WX    TMP DP  RH WIND       PRES   REMARKS
CHAMBERLAIN    MOSUNNY   76  61  58 S21G26    29.85F
HURON          MOSUNNY   76  60  57 S17G28    29.87F
MADISON        FAIR      73  57  56 S15G24    29.94F
MITCHELL       MOSUNNY   77  61  57 S15       29.90F
SIOUX FALLS    MOSUNNY   77  54  44 S16G24    29.94F
WINNER         FAIR      83  56  39 S23G35    29.84F
YANKTON        SUNNY     73  57  56 S15G22    29.93F
$$

MNZ071-072-080-081-089-090-097-098-182200-
SOUTHWEST MINNESOTA

CITY           SKY/WX    TMP DP  RH WIND       PRES   REMARKS
FAIRMONT       SUNNY     73  45  35 S10G17    30.00F
JACKSON        SUNNY     73  46  38 SE10G17   30.00F
LUVERNE        MOSUNNY   77  52  41 S12       29.97F
MARSHALL       MOSUNNY   75  54  46 S16       29.95S
MONTEVIDEO     MOSUNNY   79  55  44 S10G20    29.95S
PIPESTONE      MOSUNNY   75  52  43 S14G22    29.96F
REDWOOD FALLS  SUNNY     77  51  40 S17       29.96F
TRACY          SUNNY     76  54  46 S9        29.97F
WINDOM         SUNNY     73  52  46 S12G17    29.99F
WORTHINGTON    SUNNY     73  52  46 S9        29.99F
$$

IAZ001>003-012>014-020>022-031-032-NEZ013-014-SDZ071-182200-
NORTHWEST IOWA

CITY           SKY/WX    TMP DP  RH WIND       PRES   REMARKS
CHEROKEE       SUNNY     74  53  46 SE13      29.99F
DENISON        SUNNY     72  55  56 SE9G16    29.98F
ESTHERVILLE    SUNNY     73  51  46 SE14      30.00F
LE MARS        MOSUNNY   75  59  57 SE13G20   29.97F
ORANGE CITY    MOSUNNY   75  54  46 S12G18    29.97F
SHELDON        MOSUNNY   73  55  53 SE12      29.97F
SIOUX CITY     SUNNY     77  55  46 S9G18     29.96F
SPENCER        SUNNY     74  49  41 SE14      29.99F
STORM LAKE     SUNNY     72  54  53 SE12G21   30.00F
$$

ABBREVIATIONS USED IN REMARKS
   TC - TEMPERATURE IN CELSIUS
  WCI - WIND CHILL INDEX
   HX - HEAT INDEX
  VSB - VISIBILITY




USA.gov is the U.S. government's official web portal to all federal, state and local government web resources and services.